Location: Claflin County Park
(44.8478°N, 87.5507°W)
Time: 02:42:40
(UTC+00:00)

USA 234 - Pass Details

Date: 13 March 2026
Orbit: 1102 x 1106 km, 123.0° (Epoch: 4 January)

Event Time Altitude Azimuth Distance (km) Brightness Sun altitude
Exits shadow 03:28:13 58° 321° (NW) 1,278 3.7 -36.5°
Drops below altitude 10° 03:33:20 10° 310° (NW) 2,969 6.3 -37.2°
Sets 03:35:49 0° 310° (NW) 3,930 7.1 -37.5°
